This demonstration page uses our WeatherBlox Daily Observations layout. Learn more.

Left ArrowRight Arrow

39.29038, -76.61219

Hourly Observations for December 31, 2020

Temp ( °F °C ) Dew Point ( °F °C ) Humidity (%) Winds ( mph kmh ) Pressure ( in mb ) Visibility ( mi km ) Precip ( " mm )
12:54 am 00:54 Cloudy 48 8.9 40 4.4 74 74 SW 12 19 30.03 1017 10 16 0.00 0.00
1:54 am 01:54 Cloudy 49 9.4 41 5 74 74 SW 14 22 30.03 1017 10 16 0.00 0.00
2:54 am 02:54 Cloudy with Light Rain 48 8.9 42 5.6 80 80 SSW 13 20 30.02 1017 10 16 0.00 0.00
3:31 am 03:31 Cloudy 49 9.4 42 5.6 77 77 SW 10 17 30.01 1016 10 16 0.00 0.00
3:54 am 03:54 Cloudy 49 9.4 42 5.6 77 77 SW 12 19 30.00 1016 10 16 0.00 0.00
4:54 am 04:54 Cloudy 50 10 43 6.1 77 77 SW 9 15 29.99 1016 10 16 0.00 0.00
5:54 am 05:54 Mostly Cloudy 49 9.4 43 6.1 80 80 SW 12 19 30.01 1016 10 16 0.00 0.00
6:54 am 06:54 Mostly Cloudy 49 9.4 43 6.1 80 80 WSW 8 13 30.04 1017 10 16 0.00 0.00
7:54 am 07:54 Cloudy 48 8.9 42 5.6 80 80 W 7 11 30.07 1018 10 16 0.00 0.00
8:54 am 08:54 Cloudy 49 9.4 42 5.6 77 77 WSW 8 13 30.10 1019 10 16 0.00 0.00
9:54 am 09:54 Cloudy 50 10 40 4.4 68 68 WNW 5 7 30.15 1021 10 16 0.00 0.00
10:54 am 10:54 Partly Cloudy 53 11.7 40 4.4 61 61 N 5 7 30.16 1021 10 16 0.00 0.00
11:54 am 11:54 Cloudy 53 11.7 37 2.8 55 55 VRB 6 9 30.14 1021 10 16 0.00 0.00
12:54 pm 12:54 Cloudy 52 11.1 34 1.1 50 50 NNW 10 17 30.15 1021 10 16 0.00 0.00
1:54 pm 13:54 Cloudy 50 10 32 0 50 50 WNW 10 17 30.17 1022 10 16 0.00 0.00
2:54 pm 14:54 Cloudy 49 9.4 33 0.6 55 55 N 10 17 30.20 1023 10 16 0.00 0.00
3:54 pm 15:54 Cloudy 43 6.1 33 0.6 68 68 N 10 17 30.24 1024 10 16 0.00 0.00
4:54 pm 16:54 Cloudy 42 5.6 31 -0.6 65 65 N 8 13 30.27 1025 10 16 0.00 0.00
5:54 pm 17:54 Cloudy 42 5.6 30 -1.1 62 62 N 7 11 30.30 1026 10 16 0.00 0.00
6:54 pm 18:54 Cloudy 42 5.6 30 -1.1 62 62 NNE 5 7 30.33 1027 10 16 0.00 0.00
7:54 pm 19:54 Cloudy 42 5.6 28 -2.2 58 58 N 6 9 30.34 1028 10 16 0.00 0.00
8:54 pm 20:54 Cloudy 41 5 28 -2.2 60 60 N 6 9 30.37 1029 10 16 0.00 0.00
9:54 pm 21:54 Partly Cloudy 39 3.9 28 -2.2 65 65 NNW 5 7 30.39 1029 10 16 0.00 0.00
10:54 pm 22:54 Partly Cloudy 38 3.3 27 -2.8 65 65 NNW 5 7 30.41 1030 10 16 0.00 0.00
11:54 pm 23:54 Mostly Clear 37 2.8 27 -2.8 67 67 N 3 6 30.41 1030 10 16 0.00 0.00

Powered by AerisWeather